"Timestamp","TZ","WindDir_Mean (deg)","WindSpd_Mean (km/h)","WindSpd_Min (km/h)","WindSpd_Max (km/h)","Temp_Mean (deg)","RH_Mean (%)","MSLP_Mean (hPa)","Rain_Acc (mm)","Rain_Intensity (mm/h)","Hail_Acc (hits/cm2)","Hail_Intensity (hits/cm2hr)","Solar_Mean (W/m2)"
2021/11/27 00:00:00.003,n,350,5.76,4.32,6.48,24.3,81.1,1008.32,0,0,0,0,0.024376
2021/11/27 00:01:00.000,n,322,1.8,0.72,2.16,24.3,81.2,1008.32,0,0,0,0,0.023499
2021/11/27 00:02:00.000,n,316,4.68,2.52,5.76,24.3,81.7,1008.32,0,0,0,0,0.025253
2021/11/27 00:03:00.000,n,330,2.16,1.8,4.32,24.3,81.4,1008.22,0,0,0,0,0.025253
2021/11/27 00:04:00.000,n,221,3.96,2.52,4.68,24.3,81.1,1008.22,0,0,0,0,0.027847
2021/11/27 00:05:00.004,n,278,2.52,1.44,3.6,24.3,81.1,1008.22,0,0,0,0,0.027847
2021/11/27 00:06:00.001,n,5,4.68,4.32,5.04,24.2,81,1008.22,0,0,0,0,0.026093
2021/11/27 00:07:00.000,n,0,4.32,3.96,4.68,24.2,81.3,1008.22,0,0,0,0,0.027847
2021/11/27 00:08:00.012,n,313,5.76,4.68,7.2,24.3,81.7,1008.22,0,0,0,0,0.024376
2021/11/27 00:09:00.010,n,238,3.96,1.8,7.2,24.3,81.4,1008.22,0,0,0,0,0.024376
2021/11/27 00:10:00.000,n,7,6.12,2.52,7.92,24.3,81.4,1008.22,0,0,0,0,0.025253
2021/11/27 00:11:00.000,n,252,5.04,2.16,7.2,24.3,81.2,1008.12,0,0,0,0,0.029602
2021/11/27 00:12:00.004,n,343,1.44,0.36,3.6,24.2,81.3,1008.12,0,0,0,0,0.027847
2021/11/27 00:13:00.001,n,350,4.68,3.24,6.12,24.2,81.3,1008.12,0,0,0,0,0.02697
2021/11/27 00:14:00.001,n,301,4.68,3.6,6.12,24.2,81.3,1008.12,0,0,0,0,0.026093
2021/11/27 00:15:00.000,n,5,5.76,5.4,6.12,24.2,81.1,1008.12,0,0,0,0,0.027847
2021/11/27 00:16:00.010,n,344,5.76,5.04,7.56,24.2,81.4,1008.12,0,0,0,0,0.029602
2021/11/27 00:17:00.007,n,354,9.72,9,10.440002,24.2,81.3,1008.12,0,0,0,0,0.030441
2021/11/27 00:18:00.005,n,340,6.12,4.68,8.28,24.2,81.3,1008.12,0,0,0,0,0.027847
2021/11/27 00:19:00.000,n,16,5.76,4.68,6.12,24.1,81.3,1008.12,0,0,0,0,0.027847
2021/11/27 00:20:00.000,n,3,9,7.2,10.8,24.1,81.4,1008.12,0,0,0,0,0.02697
2021/11/27 00:21:00.000,n,256,1.8,0.36,6.12,24.1,81.7,1008.12,0,0,0,0,0.027847
2021/11/27 00:22:00.008,n,220,2.88,0.72,5.04,24.1,81.7,1008.22,0,0,0,0,0.025253
2021/11/27 00:23:00.002,n,15,2.88,2.52,3.24,24.1,81.7,1008.22,0,0,0,0,0.026093
2021/11/27 00:24:00.000,n,301,5.76,4.32,6.48,24.1,81.7,1008.22,0,0,0,0,0.025253
2021/11/27 00:25:00.000,n,287,5.04,3.24,6.84,24.1,81.9,1008.22,0,0,0,0,0.027847
2021/11/27 00:26:00.010,n,313,2.52,1.44,2.88,24.1,81.8,1008.32,0,0,0,0,0.028725
2021/11/27 00:27:00.007,n,299,4.68,3.24,5.4,24.2,82.1,1008.32,0,0,0,0,0.028725
2021/11/27 00:28:00.000,n,354,7.2,5.04,10.8,24.2,81.8,1008.22,0,0,0,0,0.02697
2021/11/27 00:29:00.001,n,3,2.88,2.52,3.96,24.1,81.8,1008.32,0,0,0,0,0.02697
2021/11/27 00:30:00.000,n,334,2.52,1.8,3.6,24.1,81.9,1008.32,0,0,0,0,0.025253
2021/11/27 00:31:00.000,n,252,5.4,2.52,8.28,24.1,82,1008.32,0,0,0,0,0.025253
2021/11/27 00:32:00.008,n,342,7.2,5.76,8.64,24.1,82.1,1008.32,0,0,0,0,0.024376
2021/11/27 00:33:00.006,n,349,2.88,2.16,3.96,24.1,82.3,1008.22,0,0,0,0,0.02697
2021/11/27 00:34:00.003,n,40,2.52,1.8,2.88,24.1,82.1,1008.22,0,0,0,0,0.026093
2021/11/27 00:35:00.000,n,77,1.8,1.08,2.16,24.1,82,1008.22,0,0,0,0,0.026093
2021/11/27 00:36:00.013,n,67,1.8,0.72,3.24,24.1,82,1008.12,0,0,0,0,0.024376
2021/11/27 00:37:00.000,n,12,1.44,1.08,1.8,24.1,82,1008.12,0,0,0,0,0.025253
2021/11/27 00:38:00.000,n,278,1.44,0.72,3.24,24,82,1008.12,0,0,0,0,0.02697
2021/11/27 00:39:00.005,n,333,1.08,1.08,1.44,24,82.1,1008.12,0,0,0,0,0.026093
2021/11/27 00:40:00.002,n,200,2.88,2.16,4.32,24,82.2,1008.22,0,0,0,0,0.026093
2021/11/27 00:41:00.000,n,229,2.88,1.8,5.4,24,82.2,1008.22,0,0,0,0,0.024376
2021/11/27 00:42:00.000,n,219,2.16,1.8,2.88,24,82.2,1008.22,0,0,0,0,0.025253
2021/11/27 00:43:00.009,n,182,3.96,1.44,6.48,24,82.2,1008.22,0,0,0,0,0.026093
2021/11/27 00:44:00.007,n,181,3.24,1.8,6.84,24,82.3,1008.22,0,0,0,0,0.025253
2021/11/27 00:45:00.003,n,273,3.24,2.52,4.32,24,82.3,1008.22,0,0,0,0,0.028725
2021/11/27 00:46:00.000,n,12,2.16,1.08,2.52,24,82.3,1008.12,0,0,0,0,0.023499
2021/11/27 00:47:00.000,n,134,0.72,0.36,1.44,24,82.5,1008.12,0,0,0,0,0.025253
2021/11/27 00:48:00.004,n,56,2.16,0.36,2.16,24.1,82.5,1008.12,0,0,0,0,0.02697
2021/11/27 00:49:00.001,n,336,3.24,1.8,3.96,24.1,82.4,1008.12,0,0,0,0,0.026093
2021/11/27 00:50:00.000,n,222,1.44,0.36,2.16,24.1,82.4,1008.12,0,0,0,0,0.028725
2021/11/27 00:51:00.000,n,201,2.16,1.8,4.32,24.1,82.3,1008.12,0,0,0,0,0.028725
2021/11/27 00:52:00.007,n,189,3.24,2.16,4.32,24.1,82.3,1008.12,0,0,0,0,0.028725
2021/11/27 00:53:00.005,n,246,4.32,4.32,4.68,24.1,82.3,1008.12,0,0,0,0,0.027847
2021/11/27 00:54:00.002,n,274,6.84,6.48,7.2,24.1,82.3,1008.12,0,0,0,0,0.027847
2021/11/27 00:55:00.000,n,250,9,9,9.36,24.1,82.2,1008.12,0,0,0,0,0.028725
2021/11/27 00:56:00.000,n,254,6.12,5.4,6.84,24.1,82.4,1008.12,0,0,0,0,0.032196
2021/11/27 00:57:00.000,n,269,7.2,6.48,7.92,24.1,82.5,1008.12,0,0,0,0,0.028725
2021/11/27 00:58:00.000,n,232,3.96,2.16,5.04,24.1,82.6,1008.12,0,0,0,0,0.028725
2021/11/27 00:59:00.005,n,258,11.88,3.96,14.4,24,81.9,1008.12,0,0,0,0,0.027847
2021/11/27 01:00:00.002,n,254,11.88,8.64,14.4,23.9,81.5,1008.12,0,0,0,0,0.027847
2021/11/27 01:01:00.000,n,255,9.72,2.52,16.56,23.8,81.5,1008.12,0,0,0,0,0.028725
2021/11/27 01:02:00.013,n,261,13.68,10.440002,16.2,23.7,81.2,1008.12,0,0,0,0,0.026093
2021/11/27 01:03:00.010,n,246,7.2,3.96,11.16,23.6,81.5,1008.12,0,0,0,0,0.027847
2021/11/27 01:04:00.000,n,257,9.72,4.68,11.16,23.5,81.5,1008.12,0,0,0,0,0.028725
2021/11/27 01:05:00.000,n,240,10.08,9,11.88,23.5,81.7,1008.22,0,0,0,0,0.027847
2021/11/27 01:06:00.001,n,259,15.48,11.88,21.24,23.5,81.4,1008.12,0,0,0,0,0.026093
2021/11/27 01:07:00.000,n,263,11.88,8.64,14.4,23.4,81.5,1008.12,0,0,0,0,0.02697
2021/11/27 01:08:00.000,n,236,7.92,3.24,11.52,23.4,81.7,1008.22,0,0,0,0,0.025253
2021/11/27 01:09:00.008,n,242,8.28,6.12,10.08,23.4,81.9,1008.12,0,0,0,0,0.024376
2021/11/27 01:10:00.007,n,274,13.32,12.24,14.4,23.4,81.8,1008.12,0.01,0,0,0,0.023499
2021/11/27 01:11:00.004,n,265,13.68,13.68,14.4,23.3,81.6,1008.12,0.02,0.9,0,0,0.02697
2021/11/27 01:12:00.011,n,258,9.36,8.28,10.8,23.3,81.8,1008.02,0.02,0.1,0,0,0.024376
2021/11/27 01:13:00.000,n,273,6.12,4.68,6.84,23.3,82,1008.02,0.03,0.4,0,0,0.021744
2021/11/27 01:14:00.000,n,290,10.440002,8.64,11.52,23.2,82.2,1008.02,0.03,0.1,0,0,0.023499
2021/11/27 01:15:00.004,n,256,6.12,4.32,9.36,23.2,82.1,1008.02,0.03,0,0,0,0.023499
2021/11/27 01:16:00.001,n,290,4.32,1.8,9,23.2,82.6,1007.92,0.03,0,0,0,0.020866
2021/11/27 01:17:00.000,n,272,5.4,5.04,5.76,23.2,82.6,1007.92,0.03,0,0,0,0.017433
2021/11/27 01:18:00.000,n,293,2.88,1.44,3.6,23.1,82.7,1007.92,0.03,0,0,0,0.01915
2021/11/27 01:19:00.009,n,280,5.04,4.68,5.04,23.1,82.8,1007.92,0.03,0,0,0,0.01915
2021/11/27 01:20:00.007,n,287,3.96,3.6,5.76,23.1,82.9,1007.92,0.03,0,0,0,0.016518
2021/11/27 01:21:00.004,n,272,3.6,3.24,3.96,23.1,83,1007.82,0.03,0,0,0,0.016518
2021/11/27 01:22:00.001,n,218,3.96,2.88,4.32,23.1,83.2,1007.82,0.03,0,0,0,0.014801
2021/11/27 01:23:00.000,n,167,1.44,1.08,1.8,23.1,83.4,1007.82,0.03,0,0,0,0.024414
2021/11/27 01:24:00.000,n,238,0.36,0.36,0.72,23.1,83.5,1007.72,0.03,0,0,0,0.027008
2021/11/27 01:25:00.000,n,219,2.88,2.52,3.24,23.1,83.6,1007.72,0.03,0,0,0,0.030479
2021/11/27 01:26:00.006,n,244,4.68,4.32,5.04,23.1,83.8,1007.72,0.03,0,0,0,0.032196
2021/11/27 01:27:00.002,n,247,2.52,1.8,2.88,23.1,83.5,1007.72,0.03,0,0,0,0.026131
2021/11/27 01:28:00.001,n,269,6.48,6.48,7.2,23,83.5,1007.72,0.03,0,0,0,0.025253
2021/11/27 01:29:00.015,n,255,5.4,1.44,6.48,23,83.4,1007.72,0.03,0,0,0,0.028763
2021/11/27 01:30:00.011,n,260,2.88,2.52,3.96,22.9,83.6,1007.72,0.03,0,0,0,0.024414
2021/11/27 01:31:00.000,n,258,1.44,1.44,1.44,22.9,83.7,1007.72,0.03,0,0,0,0.025253
2021/11/27 01:32:00.000,n,198,1.44,0.36,1.8,22.9,83.9,1007.62,0.03,0,0,0,0.026131
2021/11/27 01:33:00.003,n,246,2.52,1.44,3.24,22.9,84,1007.62,0.03,0,0,0,0.016556
2021/11/27 01:34:00.000,n,283,1.8,1.44,2.16,22.9,84,1007.62,0.03,0,0,0,0.020905
2021/11/27 01:35:00.000,n,292,0.72,0.36,1.08,22.9,84,1007.62,0.03,0,0,0,0.020905
2021/11/27 01:36:00.000,n,277,1.44,1.08,1.44,22.9,84.1,1007.62,0.03,0,0,0,0.019188
2021/11/27 01:37:00.009,n,316,2.16,1.44,3.6,22.8,84.1,1007.62,0.03,0,0,0,0.023499
2021/11/27 01:38:00.004,n,289,3.24,2.52,3.24,22.8,84.2,1007.62,0.03,0,0,0,0.028725
2021/11/27 01:39:00.003,n,73,1.08,0.72,1.44,22.8,84.3,1007.62,0.03,0,0,0,0.028725
2021/11/27 01:40:00.000,n,283,2.16,1.08,3.24,22.8,84.2,1007.62,0.03,0,0,0,0.021744
2021/11/27 01:41:00.000,n,264,2.52,0.72,2.88,22.8,84.2,1007.72,0.03,0,0,0,0.025215
2021/11/27 01:42:00.000,n,229,2.52,2.16,3.24,22.8,84.2,1007.72,0.03,0,0,0,0.026093
2021/11/27 01:43:00.000,n,260,4.32,0.72,5.04,22.8,84.4,1007.72,0.03,0,0,0,0.024376
2021/11/27 01:44:00.006,n,173,2.52,1.44,3.96,22.7,84.3,1007.72,0.03,0,0,0,0.024376
2021/11/27 01:45:00.003,n,252,5.4,5.04,5.76,22.7,84.3,1007.72,0.03,0,0,0,0.023499
2021/11/27 01:46:00.000,n,235,4.32,2.16,5.04,22.7,84.4,1007.72,0.03,0,0,0,0.020027
2021/11/27 01:47:00.014,n,192,2.88,2.52,3.24,22.7,84.4,1007.72,0.03,0,0,0,0.022621
2021/11/27 01:48:00.010,n,249,3.6,3.24,3.96,22.7,84.5,1007.72,0.03,0,0,0,0.023499
2021/11/27 01:49:00.000,n,221,2.16,1.8,2.52,22.7,84.6,1007.72,0.03,0,0,0,0.021744
2021/11/27 01:50:00.000,n,195,2.52,2.16,3.6,22.7,84.7,1007.72,0.03,0,0,0,0.020027
2021/11/27 01:51:00.002,n,211,3.24,1.8,3.96,22.7,84.8,1007.72,0.03,0,0,0,0.021744
2021/11/27 01:52:00.000,n,218,2.88,2.52,2.88,22.7,84.9,1007.72,0.03,0,0,0,0.020027
2021/11/27 01:53:00.000,n,272,2.88,2.52,3.24,22.7,84.9,1007.72,0.03,0,0,0,0.024338
2021/11/27 01:54:00.010,n,229,2.52,2.16,3.24,22.7,84.9,1007.72,0.03,0,0,0,0.022621
2021/11/27 01:55:00.007,n,253,3.6,1.8,3.96,22.7,84.9,1007.72,0.03,0,0,0,0.024338
2021/11/27 01:56:00.005,n,271,2.88,2.52,3.6,22.6,84.9,1007.72,0.03,0,0,0,0.024338
2021/11/27 01:57:00.001,n,252,4.68,1.44,5.4,22.6,84.9,1007.72,0.03,0,0,0,0.020027
2021/11/27 01:58:00.000,n,247,3.24,1.8,3.6,22.6,84.9,1007.62,0.03,0,0,0,0.021744
2021/11/27 01:59:00.000,n,261,3.96,3.6,4.32,22.6,85,1007.62,0.03,0,0,0,0.018234
2021/11/27 02:00:00.000,n,253,3.24,1.8,3.6,22.6,85,1007.62,0.03,0,0,0,0.018234
2021/11/27 02:01:00.007,n,239,3.6,1.44,4.68,22.5,85,1007.62,0.03,0,0,0,0.018234
2021/11/27 02:02:00.003,n,182,2.16,1.08,4.68,22.5,85.1,1007.62,0.03,0,0,0,0.020027
2021/11/27 02:03:00.001,n,190,3.6,2.52,6.48,22.5,85.1,1007.52,0.03,0,0,0,0.020027
2021/11/27 02:04:00.000,n,270,2.88,2.52,3.6,22.5,85.2,1007.52,0.03,0,0,0,0.018234
2021/11/27 02:05:00.011,n,203,1.44,0.36,3.96,22.5,85.2,1007.52,0.03,0,0,0,0.020027
2021/11/27 02:06:00.008,n,129,1.44,0.72,3.24,22.5,85.4,1007.42,0.03,0,0,0,0.017395
2021/11/27 02:07:00.000,n,172,4.32,1.44,6.84,22.5,85.4,1007.42,0.03,0,0,0,0.021744
2021/11/27 02:08:00.000,n,163,3.96,2.52,6.84,22.5,85.5,1007.42,0.03,0,0,0,0.020027
2021/11/27 02:09:00.002,n,195,3.24,1.8,7.92,22.5,85.6,1007.52,0.03,0,0,0,0.019112
2021/11/27 02:10:00.000,n,172,4.68,3.96,5.04,22.5,85.5,1007.52,0.03,0,0,0,0.016518
2021/11/27 02:11:00.000,n,185,3.6,2.52,7.56,22.5,85.5,1007.52,0.03,0,0,0,0.017395
2021/11/27 02:12:00.011,n,163,3.96,3.6,4.32,22.5,85.5,1007.52,0.03,0,0,0,0.013924
2021/11/27 02:13:00.007,n,151,5.04,5.04,5.4,22.5,85.6,1007.52,0.03,0,0,0,0.026093
2021/11/27 02:14:00.009,n,152,3.6,1.08,6.84,22.5,85.6,1007.52,0.03,0,0,0,0.029602
2021/11/27 02:15:00.007,n,233,1.08,0.72,1.44,22.5,85.6,1007.52,0.03,0,0,0,0.026093
2021/11/27 02:16:00.000,n,205,0.72,0.36,1.44,22.4,85.7,1007.52,0.03,0,0,0,0.028725
2021/11/27 02:17:00.001,n,176,3.24,1.8,6.84,22.4,85.7,1007.52,0.03,0,0,0,0.023499
2021/11/27 02:18:00.000,n,124,1.08,0.72,1.08,22.4,85.7,1007.52,0.03,0,0,0,0.020905
2021/11/27 02:19:00.000,n,153,1.8,1.44,2.16,22.4,85.8,1007.52,0.03,0,0,0,0.027847
2021/11/27 02:20:00.009,n,141,4.32,4.32,4.68,22.4,85.6,1007.42,0.03,0,0,0,0.024376
2021/11/27 02:21:00.006,n,151,3.6,3.6,4.32,22.4,85.6,1007.42,0.03,0,0,0,0.024376
2021/11/27 02:22:00.003,n,205,2.88,0.72,5.76,22.4,85.7,1007.42,0.03,0,0,0,0.024376
2021/11/27 02:23:00.000,n,133,1.44,0.72,1.8,22.4,85.8,1007.42,0.03,0,0,0,0.020905
2021/11/27 02:24:00.013,n,145,2.16,0.72,6.12,22.4,85.7,1007.52,0.03,0,0,0,0.024376
2021/11/27 02:25:00.000,n,170,3.24,2.52,7.92,22.3,85.7,1007.52,0.03,0,0,0,0.022621
2021/11/27 02:26:00.000,n,194,5.4,2.52,8.28,22.3,85.7,1007.52,0.03,0,0,0,0.025253
2021/11/27 02:27:00.005,n,177,3.96,2.52,7.56,22.3,85.7,1007.52,0.03,0,0,0,0.022621
2021/11/27 02:28:00.001,n,156,2.88,2.88,3.24,22.3,85.7,1007.52,0.03,0,0,0,0.022621
2021/11/27 02:29:00.000,n,167,3.96,0.72,6.12,22.3,85.7,1007.52,0.03,0,0,0,0.020905
2021/11/27 02:30:00.000,n,163,1.44,1.08,2.16,22.3,85.8,1007.52,0.03,0,0,0,0.021744
2021/11/27 02:31:00.012,n,131,3.96,1.8,5.04,22.3,85.8,1007.52,0.03,0,0,0,0.021744
2021/11/27 02:32:00.008,n,214,2.52,2.16,3.24,22.3,85.8,1007.52,0.03,0,0,0,0.020027
2021/11/27 02:33:00.005,n,156,2.52,0.72,3.96,22.3,85.9,1007.52,0.03,0,0,0,0.025215
2021/11/27 02:34:00.000,n,277,2.16,2.16,2.16,22.3,86,1007.52,0.03,0,0,0,0.030441
2021/11/27 02:35:00.000,n,256,1.8,1.44,3.24,22.3,86,1007.52,0.03,0,0,0,0.027809
2021/11/27 02:36:00.000,n,161,2.88,1.08,4.32,22.3,86,1007.52,0.03,0,0,0,0.028725
2021/11/27 02:37:00.000,n,209,1.8,0.36,5.04,22.3,86.1,1007.52,0.03,0,0,0,0.027809
2021/11/27 02:38:00.006,n,186,2.16,1.44,4.32,22.3,86.1,1007.52,0.03,0,0,0,0.028725
2021/11/27 02:39:00.003,n,192,1.44,1.08,3.24,22.3,85.9,1007.52,0.03,0,0,0,0.028725
2021/11/27 02:40:00.000,n,199,2.52,2.16,3.24,22.3,85.8,1007.52,0.03,0,0,0,0.02697
2021/11/27 02:41:00.015,n,291,1.8,1.44,2.88,22.3,85.8,1007.62,0.03,0,0,0,0.02697
2021/11/27 02:42:00.013,n,174,2.88,0.72,5.76,22.3,85.9,1007.62,0.03,0,0,0,0.027809
2021/11/27 02:43:00.000,n,209,2.52,2.16,3.24,22.3,86,1007.62,0.03,0,0,0,0.025215
2021/11/27 02:44:00.000,n,213,1.44,0,3.96,22.3,86.1,1007.62,0.03,0,0,0,0.028725
2021/11/27 02:45:00.005,n,154,3.24,1.44,5.04,22.3,86,1007.72,0.03,0,0,0,0.029602
2021/11/27 02:46:00.001,n,245,1.08,0.72,1.08,22.3,86.1,1007.72,0.03,0,0,0,0.028725
2021/11/27 02:47:00.000,n,32,4.32,0.72,6.48,22.3,86.1,1007.72,0.03,0,0,0,0.02697
2021/11/27 02:48:00.000,n,60,2.52,0.72,5.04,22.3,86.1,1007.72,0.03,0,0,0,0.029602
2021/11/27 02:49:00.010,n,314,2.16,0.72,4.68,22.3,86.1,1007.72,0.03,0,0,0,0.024376
2021/11/27 02:50:00.006,n,124,3.6,1.08,4.68,22.3,86.1,1007.72,0.03,0,0,0,0.02697
2021/11/27 02:51:00.003,n,176,2.88,1.8,3.6,22.3,86.1,1007.72,0.03,0,0,0,0.032196
2021/11/27 02:52:00.000,n,194,1.8,0.36,4.68,22.3,86.2,1007.72,0.03,0,0,0,0.026093
2021/11/27 02:53:00.000,n,146,2.16,1.44,3.6,22.3,86.2,1007.82,0.03,0,0,0,0.028725
2021/11/27 02:54:00.000,n,287,1.8,1.8,2.52,22.3,86.2,1007.82,0.03,0,0,0,0.028725
2021/11/27 02:55:00.000,n,272,3.6,3.24,3.6,22.3,86.2,1007.82,0.03,0,0,0,0.026093
2021/11/27 02:56:00.007,n,256,4.68,0.72,5.4,22.3,86.1,1007.82,0.03,0,0,0,0.02697
2021/11/27 02:57:00.003,n,245,3.96,0.36,4.68,22.3,86.1,1007.82,0.03,0,0,0,0.028725
2021/11/27 02:58:00.000,n,247,3.96,1.08,5.76,22.3,86.1,1007.82,0.03,0,0,0,0.024376
2021/11/27 02:59:00.014,n,263,4.68,0.72,5.4,22.3,86.1,1007.82,0.03,0,0,0,0.026093
2021/11/27 03:00:00.011,n,247,3.6,0.72,5.4,22.3,86.1,1007.82,0.03,0,0,0,0.025215
2021/11/27 03:01:00.000,n,260,5.76,5.4,5.76,22.3,86.2,1007.82,0.03,0,0,0,0.025215
2021/11/27 03:02:00.000,n,258,5.4,1.44,6.12,22.3,86.2,1007.82,0.03,0,0,0,0.027809
2021/11/27 03:03:00.002,n,266,5.04,4.32,5.4,22.3,86.1,1007.82,0.03,0,0,0,0.025215
2021/11/27 03:04:00.000,n,267,6.12,6.12,6.12,22.3,86,1007.82,0.03,0,0,0,0.02697
2021/11/27 03:05:00.000,n,289,3.24,2.52,5.04,22.3,86.1,1007.82,0.03,0,0,0,0.026093
2021/11/27 03:06:00.011,n,261,5.4,5.04,5.4,22.2,86,1007.82,0.03,0,0,0,0.026093
2021/11/27 03:07:00.008,n,240,3.6,0.72,4.68,22.2,86.1,1007.82,0.03,0,0,0,0.024376
2021/11/27 03:08:00.005,n,245,3.96,0.36,4.68,22.2,86.1,1007.82,0.03,0,0,0,0.023499
2021/11/27 03:09:00.003,n,162,2.16,1.08,3.96,22.2,86.1,1007.82,0.03,0,0,0,0.02697
2021/11/27 03:10:00.000,n,162,1.44,0.36,4.68,22.2,86,1007.72,0.03,0,0,0,0.028725
2021/11/27 03:11:00.000,n,157,1.8,1.08,2.88,22.2,86,1007.72,0.03,0,0,0,0.02697
2021/11/27 03:12:00.000,n,187,2.52,1.44,4.32,22.2,86.1,1007.72,0.03,0,0,0,0.028725
2021/11/27 03:13:00.000,n,232,3.96,1.08,4.68,22.2,86.2,1007.72,0.03,0,0,0,0.028725
2021/11/27 03:14:00.005,n,254,4.32,1.08,5.76,22.2,86.2,1007.82,0.03,0,0,0,0.025215
2021/11/27 03:15:00.002,n,272,5.04,4.68,5.04,22.2,86.1,1007.82,0.03,0,0,0,0.023499
2021/11/27 03:16:00.000,n,270,5.04,0.36,5.76,22.2,86.1,1007.82,0.03,0,0,0,0.028725
2021/11/27 03:17:00.013,n,255,4.32,0.36,5.4,22.2,86.3,1007.82,0.03,0,0,0,0.029602
2021/11/27 03:18:00.009,n,272,2.52,1.44,3.24,22.2,86.2,1007.82,0.03,0,0,0,0.024376
2021/11/27 03:19:00.000,n,205,2.88,0.72,3.96,22.2,86.3,1007.82,0.03,0,0,0,0.025215
2021/11/27 03:20:00.004,n,169,2.52,1.44,3.96,22.2,86.3,1007.92,0.03,0,0,0,0.026093
2021/11/27 03:21:00.002,n,237,2.52,1.8,3.24,22.3,86.2,1007.92,0.03,0,0,0,0.027809
2021/11/27 03:22:00.000,n,220,2.52,1.8,4.68,22.2,86.2,1007.92,0.03,0,0,0,0.028725
2021/11/27 03:23:00.000,n,270,6.48,5.76,7.2,22.2,86.2,1007.92,0.03,0,0,0,0.02697
2021/11/27 03:24:00.011,n,270,4.68,4.32,5.04,22.2,86.3,1007.92,0.03,0,0,0,0.029602
2021/11/27 03:25:00.008,n,258,5.4,0.72,6.12,22.2,86.1,1008.02,0.03,0,0,0,0.027809
2021/11/27 03:26:00.005,n,266,6.48,6.12,6.84,22.2,86.1,1008.02,0.03,0,0,0,0.027809
2021/11/27 03:27:00.003,n,271,6.84,6.12,7.2,22.2,86.1,1008.02,0.03,0,0,0,0.027809
2021/11/27 03:28:00.000,n,240,4.32,2.16,5.4,22.2,86.1,1008.02,0.03,0,0,0,0.028725
2021/11/27 03:29:00.000,n,259,4.32,0.72,5.04,22.2,86.1,1008.02,0.03,0,0,0,0.023499
2021/11/27 03:30:00.000,n,266,4.68,3.24,5.4,22.2,86.1,1008.12,0.03,0,0,0,0.026093
2021/11/27 03:31:00.000,n,271,5.4,5.04,6.12,22.2,86.2,1008.12,0.03,0,0,0,0.026093
2021/11/27 03:32:00.008,n,266,5.76,1.44,6.48,22.1,86.2,1008.12,0.03,0,0,0,0.027809
2021/11/27 03:33:00.005,n,271,6.12,5.04,7.56,22.2,86.4,1008.12,0.03,0,0,0,0.028725
2021/11/27 03:34:00.002,n,258,5.04,1.08,6.48,22.2,86.3,1008.22,0.03,0,0,0,0.026093
2021/11/27 03:35:00.001,n,265,6.84,3.24,7.56,22.2,86.2,1008.22,0.03,0,0,0,0.025215
2021/11/27 03:36:00.016,n,257,5.04,4.32,5.4,22.1,86.2,1008.22,0.03,0,0,0,0.024376
2021/11/27 03:37:00.000,n,185,2.88,1.8,3.96,22.1,86.2,1008.32,0.03,0,0,0,0.024376
2021/11/27 03:38:00.000,n,275,5.76,5.4,5.76,22.1,86.2,1008.32,0.03,0,0,0,0.023499
2021/11/27 03:39:00.000,n,164,1.44,0.36,5.04,22.1,86.2,1008.32,0.03,0,0,0,0.025215
2021/11/27 03:40:00.005,n,191,2.52,1.44,2.88,22.1,86.3,1008.32,0.03,0,0,0,0.022621
2021/11/27 03:41:00.001,n,206,2.52,0.72,5.04,22.1,86.3,1008.32,0.03,0,0,0,0.023499
2021/11/27 03:42:00.000,n,274,4.68,0.72,5.4,22.1,86.4,1008.32,0.03,0,0,0,0.024376
2021/11/27 03:43:00.000,n,247,3.6,0.36,4.32,22.1,86.4,1008.32,0.03,0,0,0,0.021744
2021/11/27 03:44:00.010,n,255,4.68,1.44,5.04,22.1,86.4,1008.32,0.03,0,0,0,0.025215
2021/11/27 03:45:00.007,n,251,3.96,1.44,4.68,22.1,86.3,1008.32,0.03,0,0,0,0.020866
2021/11/27 03:46:00.000,n,260,6.12,5.76,6.48,22.1,86.3,1008.32,0.03,0,0,0,0.023499
2021/11/27 03:47:00.002,n,242,4.68,1.44,6.48,22.1,86.3,1008.32,0.03,0,0,0,0.01915
2021/11/27 03:48:00.000,n,217,3.24,1.44,4.68,22.1,86.3,1008.32,0.03,0,0,0,0.022621
2021/11/27 03:49:00.000,n,250,3.96,0.72,4.68,22.1,86.3,1008.32,0.03,0,0,0,0.020866
2021/11/27 03:50:00.009,n,244,4.32,1.44,5.04,22.1,86.3,1008.32,0.03,0,0,0,0.020866
2021/11/27 03:51:00.006,n,246,3.96,0.72,5.4,22.1,86.3,1008.32,0.03,0,0,0,0.021744
2021/11/27 03:52:00.003,n,227,4.68,2.88,5.4,22.1,86.3,1008.32,0.03,0,0,0,0.020866
2021/11/27 03:53:00.001,n,242,3.24,1.44,3.96,22,86.3,1008.32,0.03,0,0,0,0.018272
2021/11/27 03:54:00.016,n,264,2.16,0.72,2.52,22,86.3,1008.42,0.03,0,0,0,0.017395
2021/11/27 03:55:00.000,n,167,3.6,2.52,4.68,22,86.3,1008.42,0.03,0,0,0,0.018272
2021/11/27 03:56:00.000,n,276,2.16,1.8,3.24,22,86.3,1008.42,0.03,0,0,0,0.017395
2021/11/27 03:57:00.000,n,189,2.52,2.16,3.24,22,86.3,1008.42,0.03,0,0,0,0.017395
2021/11/27 03:58:00.003,n,250,4.32,1.44,5.04,22,86.3,1008.52,0.03,0,0,0,0.01564
2021/11/27 03:59:00.000,n,226,4.68,3.6,5.4,22,86.3,1008.52,0.03,0,0,0,0.020866
2021/11/27 04:00:00.010,n,239,3.96,1.08,5.04,22,86.3,1008.52,0.03,0,0,0,0.026093
2021/11/27 04:01:00.007,n,179,2.16,0.72,3.96,22,86.2,1008.52,0.03,0,0,0,0.024376
2021/11/27 04:02:00.004,n,257,5.04,4.32,5.4,22,86.2,1008.52,0.03,0,0,0,0.028725
2021/11/27 04:03:00.001,n,195,2.88,0.72,4.32,22,86.2,1008.52,0.03,0,0,0,0.025215
2021/11/27 04:04:00.000,n,158,2.52,1.8,2.88,22,86.2,1008.52,0.03,0,0,0,0.022621
2021/11/27 04:05:00.000,n,269,2.52,0.36,5.76,22,86.2,1008.52,0.03,0,0,0,0.027008
2021/11/27 04:06:00.000,n,189,2.52,1.44,4.68,21.9,86.2,1008.52,0.03,0,0,0,0.026093
2021/11/27 04:07:00.007,n,202,1.44,0.72,5.76,21.9,86.2,1008.62,0.03,0,0,0,0.026093
2021/11/27 04:08:00.004,n,205,2.52,1.8,3.6,21.9,86.2,1008.62,0.03,0,0,0,0.023499
2021/11/27 04:09:00.001,n,167,4.32,2.16,11.88,21.9,86.2,1008.62,0.03,0,0,0,0.027847
2021/11/27 04:10:00.000,n,165,2.16,1.44,3.6,21.9,86.2,1008.62,0.03,0,0,0,0.027008
2021/11/27 04:11:00.013,n,201,0.72,0,5.76,21.9,86.3,1008.62,0.03,0,0,0,0.027847
2021/11/27 04:12:00.009,n,171,2.16,0.72,4.68,21.9,86.3,1008.62,0.03,0,0,0,0.026093
2021/11/27 04:13:00.000,n,266,1.44,1.44,1.8,21.9,86.3,1008.62,0.03,0,0,0,0.025215
2021/11/27 04:14:00.000,n,170,3.6,1.44,7.2,21.9,86.3,1008.52,0.03,0,0,0,0.025215
2021/11/27 04:15:00.001,n,165,3.96,2.52,6.48,21.9,86.3,1008.52,0.03,0,0,0,0.027008
2021/11/27 04:16:00.000,n,175,6.12,3.6,9.36,21.9,86.3,1008.62,0.03,0,0,0,0.027008
2021/11/27 04:17:00.000,n,199,7.2,5.4,11.16,21.9,86.3,1008.62,0.03,0,0,0,0.030441
2021/11/27 04:18:00.009,n,173,7.92,6.12,12.24,21.8,86.3,1008.62,0.03,0,0,0,0.027847
2021/11/27 04:19:00.006,n,172,6.12,4.32,9.72,21.8,86.4,1008.62,0.03,0,0,0,0.030441
2021/11/27 04:20:00.004,n,165,7.2,4.68,12.6,21.8,86.4,1008.62,0.03,0,0,0,0.033951
2021/11/27 04:21:00.003,n,170,3.96,2.16,7.92,21.8,86.5,1008.62,0.03,0,0,0,0.033951
2021/11/27 04:22:00.000,n,166,6.12,4.32,10.08,21.8,86.6,1008.72,0.03,0,0,0,0.039177
2021/11/27 04:23:00.000,n,188,5.76,4.68,8.28,21.8,86.6,1008.72,0.03,0,0,0,0.040016
2021/11/27 04:24:00.000,n,177,7.56,5.4,8.64,21.8,86.6,1008.72,0.03,0,0,0,0.044403
2021/11/27 04:25:00.000,n,219,2.16,1.08,3.96,21.8,86.6,1008.72,0.03,0,0,0,0.051346
2021/11/27 04:26:00.007,n,158,5.4,5.4,5.76,21.8,86.6,1008.72,0.03,0,0,0,0.061798
2021/11/27 04:27:00.005,n,188,6.12,3.96,9.36,21.8,86.6,1008.72,0.03,0,0,0,0.070496
2021/11/27 04:28:00.002,n,140,2.52,2.16,3.24,21.8,86.7,1008.82,0.03,0,0,0,0.079193
2021/11/27 04:29:00.000,n,145,2.88,1.08,5.04,21.8,86.7,1008.82,0.03,0,0,0,0.092239
2021/11/27 04:30:00.013,n,154,3.96,2.88,9.72,21.8,86.7,1008.82,0.03,0,0,0,0.106163
2021/11/27 04:31:00.000,n,163,6.12,2.88,8.64,21.8,86.8,1008.92,0.03,0,0,0,0.131378
2021/11/27 04:32:00.000,n,154,3.24,2.52,7.2,21.8,86.7,1008.92,0.03,0,0,0,0.156593
2021/11/27 04:33:00.004,n,176,6.12,4.68,9.36,21.8,86.8,1008.92,0.03,0,0,0,0.197449
2021/11/27 04:34:00.001,n,175,6.48,3.96,8.64,21.8,86.8,1008.92,0.03,0,0,0,0.248795
2021/11/27 04:35:00.000,n,174,13.32,8.28,14.76,21.8,86.8,1008.92,0.03,0,0,0,0.300026
2021/11/27 04:36:00.000,n,171,9.36,7.92,11.16,21.8,86.9,1008.92,0.03,0,0,0,0.363426
2021/11/27 04:37:00.009,n,134,7.2,6.48,8.28,21.8,86.9,1008.92,0.03,0,0,0,0.452042
2021/11/27 04:38:00.005,n,187,10.08,7.92,12.6,21.8,86.9,1008.92,0.03,0,0,0,0.544891
2021/11/27 04:39:00.004,n,177,5.4,4.32,9.72,21.8,86.9,1008.92,0.03,0,0,0,0.641022
2021/11/27 04:40:00.001,n,190,4.68,1.44,7.92,21.7,86.9,1008.92,0.03,0,0,0,0.742035
2021/11/27 04:41:00.000,n,175,14.4,10.08,17.28,21.7,86.8,1008.92,0.03,0,0,0,0.862045
2021/11/27 04:42:00.000,n,170,12.6,9,16.56,21.7,86.7,1008.92,0.03,0,0,0,1.010704
2021/11/27 04:43:00.000,n,204,5.76,4.68,7.92,21.7,86.6,1008.92,0.03,0,0,0,1.173973
2021/11/27 04:44:00.007,n,183,12.24,9,15.84,21.6,86.6,1009.02,0.03,0,0,0,1.337967
2021/11/27 04:45:00.004,n,175,15.12,11.16,16.2,21.6,86.6,1009.02,0.03,0,0,0,1.549454
2021/11/27 04:46:00.001,n,174,9.36,6.12,12.6,21.6,86.5,1009.12,0.03,0,0,0,1.841126
2021/11/27 04:47:00.014,n,181,11.88,7.92,14.04,21.6,86.6,1009.12,0.03,0,0,0,2.148628